Change the Weather History Date:

Saturday, March 16, 2013

  Actual Average Record
Temperature  
Mean Temperature 6 °F 30 °F  
Max Temperature 12 °F 39 °F 79 °F (2012)
Min Temperature 0 °F 21 °F -7 °F (1902)
Degree Days  
Heating Degree Days 59 35  
Month to date heating degree days 613  
Since 1 July heating degree days 6872  
Cooling Degree Days 0 0  
Month to date cooling degree days 0  
Year to date cooling degree days 0  
Moisture  
Dew Point 2 °F    
Average Humidity 82    
Maximum Humidity 88    
Minimum Humidity 73    
Precipitation  
Precipitation 0.00 in 0.03 in 0.98 in (1945)
Month to date precipitation 0.55  
Year to date precipitation 1.41  
Snow  
Snow 0.00 in - - ()
Month to date snowfall  
Since 1 July snowfall  
Snow Depth -    
Sea Level Pressure  
Sea Level Pressure 30.32 in    
Wind  
Wind Speed 16 mph (North)    
Max Wind Speed 23 mph    
Max Gust Speed -    
T = Trace of Precipitation, MM = Missing Value Source: NWS Daily Summary

Daily Weather History Graph

Daily Weather History Graph

Search for Another Location

Airport or City:

Trip Planner

Search our weather history database for the weather conditions in past years. The results will help you decide how hot, cold, wet, or windy it might be!

Date:

Astronomy

Mar. 16, 2013 Rise Set
Actual Time 7:38 AM CDT 7:35 PM CDT
Civil Twilight 7:08 AM CDT 8:05 PM CDT
Nautical Twilight 6:33 AM CDT 8:39 PM CDT
Astronomical Twilight 5:58 AM CDT 9:15 PM CDT
Moon 9:53 AM CDT (3/16) 12:04 AM CDT (3/16)
Length of Visible Light 12h 56m
Length of Day
11h 57m
Waxing Crescent, 23% of the Moon is Illuminated
Mar 16
Waxing Crescent
Mar 19
First Quarter
Mar 27
Full
Apr 2
Last Quarter
Apr 10
New

Hourly Weather History & Observations

Time (CDT) Temp. Windchill Dew Point Humidity Pressure Visibility Wind Dir Wind Speed Gust Speed Precip Events Conditions
12:56 AM 12.9 °F -4.9 °F 10.0 °F 88% 30.14 in - North 19.6 mph - N/A   Unknown
1:56 AM 12.0 °F -6.5 °F 9.0 °F 88% 30.15 in - North 20.7 mph - N/A   Unknown
2:56 AM 9.0 °F -11.4 °F 6.1 °F 88% 30.18 in - North 23.0 mph - N/A   Unknown
3:56 AM 6.1 °F -13.3 °F 1.9 °F 83% 30.21 in - North 18.4 mph - N/A   Unknown
4:56 AM 1.9 °F -18.7 °F -0.9 °F 88% 30.26 in - North 18.4 mph - N/A   Unknown
5:56 AM 1.0 °F -19.9 °F -2.0 °F 87% 30.28 in - NNW 18.4 mph - N/A   Unknown
6:56 AM -0.0 °F -20.7 °F -4.0 °F 83% 30.32 in - NNW 17.3 mph - N/A   Unknown
7:56 AM -0.9 °F -19.9 °F -4.0 °F 87% 30.34 in - NNW 13.8 mph - N/A   Unknown
8:56 AM -0.0 °F -20.1 °F -4.0 °F 83% 30.34 in - NNW 16.1 mph - N/A   Unknown
9:56 AM 1.9 °F -15.5 °F -2.0 °F 83% 30.35 in - North 12.7 mph - N/A   Unknown
10:56 AM 6.1 °F -8.7 °F 1.9 °F 83% 30.34 in - NNW 10.4 mph - N/A   Unknown
11:56 AM 8.1 °F -6.2 °F 3.9 °F 83% 30.35 in - NNW 10.4 mph - N/A   Unknown
12:56 PM 9.0 °F -6.6 °F 3.9 °F 80% 30.36 in - NNW 12.7 mph - N/A   Unknown
1:56 PM 10.0 °F -5.9 °F 3.0 °F 73% 30.35 in - North 13.8 mph - N/A   Unknown
2:56 PM 10.0 °F -5.2 °F 3.9 °F 76% 30.33 in - North 12.7 mph - N/A   Unknown
3:56 PM 10.9 °F -4.1 °F 5.0 °F 77% 30.32 in - North 12.7 mph - N/A   Unknown
4:56 PM 10.9 °F -3.4 °F 5.0 °F 77% 30.34 in - North 11.5 mph - N/A   Unknown
5:56 PM 10.9 °F -3.4 °F 5.0 °F 77% 30.33 in - North 11.5 mph - N/A   Unknown
6:56 PM 10.0 °F -5.9 °F 3.9 °F 76% 30.36 in - North 13.8 mph - N/A   Unknown
7:56 PM 8.1 °F -6.2 °F 1.9 °F 76% 30.38 in - North 10.4 mph - N/A   Unknown
8:56 PM 5.0 °F -5.6 °F 1.0 °F 84% 30.40 in - North 5.8 mph - N/A   Unknown
9:56 PM 5.0 °F -4.1 °F -0.0 °F 80% 30.41 in - North 4.6 mph - N/A   Unknown
10:56 PM 3.9 °F -5.3 °F -0.9 °F 80% 30.42 in - North 4.6 mph - N/A   Unknown
11:56 PM 3.0 °F -9.3 °F -0.9 °F 84% 30.40 in - North 6.9 mph - N/A   Unknown